[[{"header":{"parameterUnit":"m.s-1","parameterCategory":1,"la1":30.2991,"la2":30.254,"lo1":-89.0895,"lo2":-89.0444,"dy":0.0017,"dx":0.0017,"nx":28,"ny":28,"refTime":"2024-06-20T03:00:00:Z","depth":0,"parameterNumber":2,"parameterNumberName":"U-component_of_WINDS"},"data":[0,0,0,0,0,0,0,0,0,0,0,0,0,0,0,0,0,0,0,0,0,0,0,0,0,0,0,0,0,0,0,0,0,0,0,0,0,0,0,0,0,0,0,0,0,0,0,0,0,0,0,0,0,0,0,0,0,0,-5.7228,-5.7229,0,-5.7277,-5.7278,-5.7278,-5.7179,-5.7175,-5.7172,-5.7169,-5.7222,-5.7227,-5.7231,0,0,0,0,0,0,0,0,0,0,0,0,0,-5.7052,-5.7055,-5.7228,-5.7229,-5.7229,-5.7277,-5.7278,-5.7278,-5.7179,-5.7175,-5.7171,-5.7168,-5.7221,-5.7226,-5.7232,0,0,0,0,0,0,0,0,0,0,0,0,0,-5.7117,-5.7057,-5.7228,-5.7185,-5.7182,-5.7277,-5.7278,-5.7279,-5.718,-5.7175,-5.717,-5.7166,-5.7219,-5.7226,-5.7232,-5.7371,0,0,-5.7253,-5.7256,0,0,0,0,0,0,0,0,-5.7114,-5.7124,-5.7191,-5.7189,-5.7185,-5.7217,-5.7235,-5.731,-5.7181,-5.7181,-5.7169,-5.7163,-5.7225,-5.7231,-5.7251,-5.7374,-5.7376,-5.7253,-5.7257,-5.726,-5.7262,0,0,0,0,0,0,0,-5.7109,-5.7121,-5.7247,-5.7192,-5.7188,-5.7165,-5.7169,-5.7249,-5.723,-5.7181,-5.7173,-5.7181,-5.7222,-5.7244,-5.7251,-5.7377,-5.7253,-5.7259,-5.7263,-5.7266,-5.7619,-5.7624,0,0,0,0,0,0,-5.711,-5.7118,-5.7246,-5.7249,-5.7137,-5.7172,-5.7177,-5.7212,-5.7229,-5.7226,-5.7185,-5.7176,-5.7235,-5.7243,-5.7253,-5.7417,-5.726,-5.7266,-5.727,-5.7613,-5.762,-5.7626,0,0,0,0,0,0,-5.7106,-5.7122,-5.7244,-5.7182,-5.7195,-5.718,-5.722,-5.7215,-5.7237,-5.7232,-5.7228,-5.7211,-5.7232,-5.7243,-5.7343,-5.7417,-5.7269,-5.7276,-5.7607,-5.7615,-5.7623,-5.7747,0,0,0,0,0,0,-5.7102,-5.7121,-5.7173,-5.7184,-5.7199,-5.7332,-5.7225,-5.722,-5.7249,-5.7237,-5.7255,-5.7253,-5.7229,-5.7333,-5.7349,-5.7424,-5.7281,-5.76,-5.7611,-5.762,-5.7736,-5.7758,-5.7777,0,0,0,0,0,-5.7096,-5.7207,-5.7176,-5.7192,-5.7263,-5.7337,-5.7346,-5.7314,-5.7255,-5.7307,-5.7304,-5.7253,-5.7407,-5.7344,-5.7362,-5.7439,-5.7595,-5.7608,-5.7619,-5.7727,-5.7754,-5.7777,0,0,0,0,0,0,-5.7206,-5.7207,-5.7173,-5.7291,-5.7314,-5.732,-5.7385,-5.7344,-5.7385,-5.7373,-5.7334,-5.7339,-5.7446,-5.7453,-5.7383,-5.7576,-5.7491,-5.7507,-5.7567,-5.7593,-5.7613,-5.7609,-5.7286,0,0,0,0,0,-5.7244,-5.7302,-5.7301,-5.7404,-5.7418,-5.74,-5.7431,-5.7405,-5.7428,-5.7437,-5.7441,-5.7467,-5.7521,-5.7557,-5.7607,-5.7737,-5.774,-5.7799,-5.782,-5.7837,-5.7851,-5.7921,-5.7948,-5.7665,-5.7665,-5.7665,0,0,-5.7322,-5.733,-5.737,-5.7427,-5.7442,-5.7504,-5.7409,-5.7479,-5.7525,-5.7448,-5.7542,-5.7547,-5.7572,-5.7688,-5.7739,-5.7697,-5.793,-5.7852,-5.7866,-5.7871,-5.7936,-5.7963,-5.7987,-5.7673,-5.7672,-5.7671,0,0,-5.7497,-5.751,-5.7597,-5.7615,-5.7639,-5.7627,-5.7648,-5.766,-5.766,-5.7753,-5.7697,-5.7753,-5.7847,-5.7868,-5.7891,-5.8077,-5.8031,-5.8095,-5.8201,-5.827,-5.8293,-5.8312,-5.8379,-5.8403,-5.8109,-5.8109,-5.8109,0,-5.7592,-5.7683,-5.7648,-5.7722,-5.7749,-5.7683,-5.7772,-5.7791,-5.7831,-5.7852,-5.7804,-5.7921,-5.7934,-5.8054,-5.8099,-5.812,-5.8144,-5.8091,-5.8292,-5.8311,-5.8329,-5.8392,-5.8417,-5.8117,-5.8116,-5.8115,-5.8114,0,-5.7799,-5.7863,-5.7932,-5.7971,-5.8006,-5.8088,-5.8066,-5.8106,-5.8078,-5.8071,-5.8168,-5.8182,-5.8233,-5.826,-5.8234,-5.8377,-5.835,-5.8298,-5.8212,-5.8364,-5.8423,-5.8446,-5.8127,-5.8125,-5.8122,-5.812,0,0,-5.8042,-5.8063,-5.8088,-5.8106,-5.8129,-5.8178,-5.8258,-5.8308,-5.8343,-5.8374,-5.844,-5.8522,-5.8474,-5.8501,-5.8476,-5.8537,-5.8684,-5.8477,-5.8477,-5.8515,-5.8844,-5.8882,-5.8911,-5.8655,-5.8659,-5.8663,-5.8842,0,-5.8216,-5.8351,-5.8322,-5.8456,-5.8515,-5.8454,-5.8524,-5.8547,-5.8543,-5.8594,-5.8591,-5.865,-5.8582,-5.8598,-5.8655,-5.8654,-5.875,-5.8641,-5.8717,-5.872,-5.8711,-5.8941,-5.8982,-5.915,-5.8864,-5.8868,-5.8871,0,-5.8435,-5.8473,-5.8613,-5.8627,-5.8651,-5.8714,-5.8758,-5.8807,-5.8833,-5.8826,-5.8857,-5.8821,-5.8902,-5.8817,-5.8928,-5.8854,-5.8884,-5.8889,-5.8895,-5.8899,-5.8804,-5.8952,-5.9202,-5.9227,-5.8907,-5.8904,-5.8901,0,-5.8598,-5.8685,-5.878,-5.8797,-5.8816,-5.8862,-5.8873,-5.8893,-5.8925,-5.8964,-5.8985,-5.9034,-5.9061,-5.91,-5.9079,-5.9019,-5.9195,-5.9107,-5.9192,-5.9193,-5.923,-5.9228,-5.9489,-5.9252,-5.9252,-5.9251,-5.9251,0,-5.8794,-5.8881,-5.8853,-5.8911,-5.9008,-5.8976,-5.9073,-5.9077,-5.9096,-5.9155,-5.9106,-5.9163,-5.9132,-5.9187,-5.9172,-5.9267,-5.928,-5.9277,-5.9272,-5.9281,-5.9281,-5.9299,-5.9286,-5.9258,-5.9256,-5.9255,-5.9254,0,-5.8991,-5.8976,-5.9075,-5.9086,-5.9091,-5.9162,-5.9172,-5.9227,-5.9221,-5.9296,-5.9312,-5.9302,-5.9365,-5.9348,-5.9417,-5.9406,-5.9526,-5.9506,-5.9517,-5.9512,-5.9597,-5.9589,-5.9877,-5.9913,-5.9655,-5.9657,-5.9659,0,-5.9116,-5.9182,-5.9201,-5.9236,-5.925,-5.9308,-5.9341,-5.9313,-5.9349,-5.9384,-5.9435,-5.9493,-5.9537,-5.964,-5.9641,-5.9693,-5.9674,-5.9771,-5.9681,-5.9689,-5.9675,-5.967,-5.9677,-5.9789,-5.9792,-5.9794,-5.9796,0,-5.934,-5.9329,-5.9378,-5.9425,-5.9465,-5.9501,-5.9532,-5.9565,-5.9539,-5.9583,-5.9645,-5.968,-5.975,-5.9808,-5.9857,-5.9869,-5.9829,-5.9825,-5.9847,-5.9856,-5.9859,-5.9858,-5.9565,-5.9818,-5.9816,-5.9814,-5.9813,-5.9812,-5.9504,-5.956,-5.9582,-5.9638,-5.9659,-5.969,-5.9742,-5.9743,-5.9794,-5.9848,-5.9829,-5.9901,-5.9927,-5.9988,-6.0007,-6.0063,-6.0027,-6.0059,-6.0067,-6.0075,-6.0085,-5.9852,-6.0072,-6.0072,-6.0071,-6.0071,-6.007,0,-5.9724,-5.9736,-5.9788,-5.9833,-5.9878,-5.9837,-5.987,-5.991,-5.9974,-6.0001,-6.0046,-6.0119,-6.0176,-6.0182,-6.0236,-6.0281,-6.0264,-6.0296,-6.0292,-6.0295,-6.0115,-6.009,-6.0309,-6.0309,-6.0309,-6.0308,-6.0308,-6.0308,-5.9844,-5.9936,-5.9929,-6.0033,-6.0044,-6.0113,-6.0136,-6.0165,-6.0186,-6.0269,-6.0316,-6.0319,-6.0339,-6.0394,-6.0445,-6.0445,-6.0467,-6.0506,-6.05,-6.0332,-6.0308,-6.0285,-6.0261,-6.0512,-6.0512,-6.0675,-6.0676,-6.0677]},{"header":{"parameterUnit":"m.s-1","parameterCategory":1,"la1":30.2991,"la2":30.254,"lo1":-89.0895,"lo2":-89.0444,"dy":0.0017,"dx":0.0017,"nx":28,"ny":28,"refTime":"2024-06-20T03:00:00:Z","depth":0,"parameterNumber":3,"parameterNumberName":"V-component_of_WINDS"},"data":[0,0,0,0,0,0,0,0,0,0,0,0,0,0,0,0,0,0,0,0,0,0,0,0,0,0,0,0,0,0,0,0,0,0,0,0,0,0,0,0,0,0,0,0,0,0,0,0,0,0,0,0,0,0,0,0,0,0,-1.4108,-1.4109,0,-1.4205,-1.4206,-1.4207,-1.421,-1.4209,-1.4208,-1.4207,-1.4308,-1.4311,-1.4315,0,0,0,0,0,0,0,0,0,0,0,0,0,-1.3926,-1.3929,-1.4108,-1.4109,-1.411,-1.4205,-1.4206,-1.4208,-1.421,-1.4209,-1.4208,-1.4206,-1.4306,-1.4311,-1.4315,0,0,0,0,0,0,0,0,0,0,0,0,0,-1.4012,-1.393,-1.4108,-1.4123,-1.4125,-1.4205,-1.4206,-1.4208,-1.4211,-1.4209,-1.4207,-1.4206,-1.4305,-1.431,-1.4316,-1.4387,0,0,-1.4333,-1.4336,0,0,0,0,0,0,0,0,-1.4007,-1.4019,-1.412,-1.4122,-1.4125,-1.4194,-1.4179,-1.4268,-1.4211,-1.4178,-1.4207,-1.4205,-1.4271,-1.428,-1.4302,-1.4392,-1.4396,-1.4334,-1.4337,-1.434,-1.4341,0,0,0,0,0,0,0,-1.4001,-1.4014,-1.4146,-1.4121,-1.4124,-1.4125,-1.4136,-1.4196,-1.4234,-1.4181,-1.4182,-1.4193,-1.4272,-1.4296,-1.4304,-1.4397,-1.4334,-1.4339,-1.4342,-1.4345,-1.4551,-1.4553,0,0,0,0,0,0,-1.3992,-1.4009,-1.4143,-1.4149,-1.406,-1.413,-1.4142,-1.4173,-1.4233,-1.424,-1.4194,-1.4193,-1.4287,-1.4298,-1.4308,-1.4395,-1.434,-1.4345,-1.4348,-1.4549,-1.4551,-1.4554,0,0,0,0,0,0,-1.3988,-1.4004,-1.4139,-1.408,-1.4097,-1.4135,-1.4171,-1.4176,-1.42,-1.4243,-1.425,-1.4212,-1.4286,-1.43,-1.4367,-1.4399,-1.4348,-1.4353,-1.4546,-1.455,-1.4552,-1.457,0,0,0,0,0,0,-1.3983,-1.4002,-1.4029,-1.408,-1.41,-1.4197,-1.4173,-1.418,-1.421,-1.4209,-1.4261,-1.4268,-1.4286,-1.4359,-1.4373,-1.4406,-1.4357,-1.4544,-1.4548,-1.4551,-1.4567,-1.4574,-1.4579,0,0,0,0,0,-1.3976,-1.4031,-1.4031,-1.4047,-1.4135,-1.4199,-1.421,-1.4229,-1.4212,-1.424,-1.4268,-1.4267,-1.4393,-1.4366,-1.4382,-1.4417,-1.4542,-1.4547,-1.4551,-1.4564,-1.4572,-1.4579,0,0,0,0,0,0,-1.3983,-1.4038,-1.4038,-1.4111,-1.415,-1.4199,-1.4235,-1.4237,-1.4282,-1.4279,-1.4301,-1.4313,-1.438,-1.4405,-1.4374,-1.4488,-1.4465,-1.4473,-1.447,-1.4478,-1.4484,-1.4477,-1.4362,0,0,0,0,0,-1.3993,-1.404,-1.4085,-1.4145,-1.4165,-1.4196,-1.4225,-1.4236,-1.4278,-1.4295,-1.4327,-1.4368,-1.4417,-1.4449,-1.4496,-1.457,-1.4582,-1.4602,-1.4608,-1.4613,-1.462,-1.4662,-1.4672,-1.4569,-1.4569,-1.4569,0,0,-1.4014,-1.405,-1.4078,-1.4147,-1.4179,-1.4228,-1.421,-1.4262,-1.4299,-1.4303,-1.4368,-1.4394,-1.4441,-1.4512,-1.4545,-1.4535,-1.4651,-1.4619,-1.4622,-1.4627,-1.4668,-1.4677,-1.4686,-1.4572,-1.4571,-1.4571,0,0,-1.4078,-1.4109,-1.4162,-1.4194,-1.4243,-1.4263,-1.4276,-1.4325,-1.4342,-1.4408,-1.4412,-1.4456,-1.4539,-1.4573,-1.4601,-1.4677,-1.4678,-1.4692,-1.4724,-1.4764,-1.4772,-1.478,-1.4807,-1.4817,-1.4698,-1.4698,-1.4698,0,-1.4098,-1.4171,-1.419,-1.4242,-1.4273,-1.4277,-1.4332,-1.4362,-1.4424,-1.4445,-1.4432,-1.4537,-1.4569,-1.4649,-1.4668,-1.469,-1.4706,-1.4686,-1.4769,-1.4777,-1.4784,-1.4811,-1.4821,-1.47,-1.47,-1.4699,-1.4699,0,-1.4194,-1.4245,-1.4282,-1.4341,-1.4375,-1.4429,-1.4456,-1.4488,-1.4497,-1.4519,-1.4586,-1.4625,-1.468,-1.47,-1.4708,-1.4781,-1.4773,-1.4765,-1.4742,-1.4795,-1.4821,-1.4831,-1.4702,-1.4701,-1.4701,-1.47,0,0,-1.4265,-1.4333,-1.4347,-1.4374,-1.4427,-1.4467,-1.452,-1.4574,-1.4602,-1.4644,-1.469,-1.4761,-1.4753,-1.4785,-1.4798,-1.4833,-1.4892,-1.482,-1.4822,-1.4833,-1.4975,-1.4981,-1.4993,-1.4892,-1.4894,-1.4896,-1.4971,0,-1.4335,-1.443,-1.4448,-1.4531,-1.4578,-1.4584,-1.463,-1.4668,-1.469,-1.4734,-1.4759,-1.4809,-1.4795,-1.4814,-1.4849,-1.4877,-1.4921,-1.4872,-1.4936,-1.4938,-1.4925,-1.5006,-1.5013,-1.5083,-1.4981,-1.4983,-1.4984,0,-1.4429,-1.4473,-1.4561,-1.4608,-1.4629,-1.467,-1.4721,-1.4763,-1.4806,-1.482,-1.4855,-1.4864,-1.492,-1.4894,-1.4973,-1.4939,-1.4966,-1.4984,-1.4987,-1.4994,-1.4965,-1.5017,-1.5105,-1.5116,-1.5,-1.4999,-1.4998,0,-1.4473,-1.4554,-1.4617,-1.464,-1.4696,-1.4726,-1.4751,-1.4792,-1.4824,-1.4868,-1.4889,-1.494,-1.4968,-1.5007,-1.5029,-1.5008,-1.5106,-1.5082,-1.512,-1.5119,-1.5141,-1.5139,-1.5236,-1.5157,-1.5157,-1.5157,-1.5156,0,-1.4549,-1.4603,-1.4638,-1.4676,-1.4737,-1.4757,-1.4816,-1.4841,-1.4878,-1.4922,-1.493,-1.4971,-1.4997,-1.5043,-1.506,-1.5123,-1.5135,-1.5148,-1.5153,-1.5148,-1.5147,-1.5167,-1.5163,-1.5159,-1.5159,-1.5158,-1.5158,0,-1.4608,-1.4634,-1.4703,-1.4751,-1.4764,-1.4807,-1.4848,-1.4886,-1.4908,-1.4964,-1.4978,-1.5013,-1.5066,-1.5092,-1.5159,-1.5171,-1.5242,-1.5243,-1.5227,-1.5229,-1.5266,-1.5262,-1.5379,-1.5396,-1.5305,-1.5306,-1.5307,0,-1.4656,-1.4697,-1.4749,-1.4779,-1.4805,-1.4853,-1.4885,-1.4907,-1.494,-1.4993,-1.5025,-1.5078,-1.5123,-1.5209,-1.524,-1.5291,-1.5294,-1.5331,-1.5302,-1.5296,-1.5295,-1.5293,-1.5297,-1.5337,-1.5338,-1.5338,-1.5339,0,-1.4737,-1.4748,-1.4793,-1.4844,-1.4881,-1.4922,-1.4962,-1.4986,-1.5015,-1.5051,-1.5106,-1.5141,-1.5209,-1.5263,-1.5316,-1.5342,-1.5346,-1.5348,-1.5359,-1.5356,-1.5345,-1.5352,-1.5243,-1.5345,-1.5345,-1.5344,-1.5344,-1.5344,-1.4793,-1.483,-1.4872,-1.4923,-1.4955,-1.4993,-1.5031,-1.5058,-1.5104,-1.516,-1.5171,-1.5229,-1.5272,-1.5344,-1.5372,-1.5419,-1.541,-1.5427,-1.5431,-1.5435,-1.5438,-1.5337,-1.5428,-1.5428,-1.5428,-1.5428,-1.5428,0,-1.4875,-1.4903,-1.4949,-1.5005,-1.5045,-1.5044,-1.5088,-1.5122,-1.5173,-1.5213,-1.5256,-1.532,-1.5372,-1.5407,-1.5461,-1.5491,-1.5494,-1.5504,-1.5503,-1.5509,-1.5442,-1.5427,-1.5501,-1.5501,-1.5501,-1.5501,-1.5501,-1.5501,-1.4923,-1.4985,-1.5001,-1.508,-1.5108,-1.5165,-1.519,-1.5225,-1.5257,-1.5327,-1.537,-1.5393,-1.5432,-1.5488,-1.5536,-1.5545,-1.5564,-1.5575,-1.5584,-1.5521,-1.5513,-1.5506,-1.5492,-1.5579,-1.5579,-1.5648,-1.5648,-1.5649]}]]